Regional Weather Roundup
Issued by NWS

Home | Current Version | Previous Version | Text Only | Print | Product List | Glossary On
Versions: 1 2 3 4 5 6 7 8 9 10 11 12 13 14 15 16 17 18 19 20 21 22 23 24 25 26 27 28 29 30 31 32 33 34 35 36 37 38 39 40 41 42 43 44 45 46 47 48 49 50
000
ASUS43 KDMX 011107
RWRIA

WEATHER ROUNDUP FOR IOWA
NATIONAL WEATHER SERVICE DES MOINES IA
500 AM CST SUN MAR 01 2015

NOTE: "FAIR" INDICATES FEW OR NO CLOUDS BELOW 12,000 FEET WITH NO
SIGNIFICANT WEATHER AND/OR OBSTRUCTIONS TO VISIBILITY.

* - THESE STATIONS ARE NOT NWS STATIONS...THUS NOT UNDER NWS
QUALITY CONTROL.  THEY ALSO DO NOT REPORT WEATHER SUCH
AS PRECIPITATION OR FOG.

IAZ001>003-012>014-020>022-031>034-043>046-011200-
   NORTHWEST IOWA

CITY           SKY/WX    TMP DP  RH WIND       PRES   REMARKS
CARROLL *      PTCLDY    16  12  86 SW6       30.31R WCI   7
CHEROKEE *     PTCLDY    12  10  92 SW5       30.29R WCI   4
DENISON *      CLEAR     12  12 100 SW3       30.29R
LE MARS *      CLEAR      9   7  92 S5        30.31R WCI   0
ORANGE CITY *  CLEAR     10   7  85 CALM      30.27R
SHELDON *      PTCLDY    10   9  92 W8        30.26R WCI  -1
SIOUX CITY     PTCLDY    16  11  80 SW6       30.31R WCI   7
SPENCER        PTCLDY    13   8  81 W9        30.26R WCI   1
STORM LAKE *   CLEAR     14  12  92 SW15      30.27R WCI  -1
$$

IAZ055>058-069>071-079>083-090>094-011200-
   SOUTHWEST IOWA

CITY           SKY/WX    TMP DP  RH WIND       PRES   REMARKS
ATLANTIC *     CLOUDY    21  16  79 W5        30.32S WCI  15
AUDUBON *      CLEAR     19  16  86 SW3       30.31R
CLARINDA *     CLOUDY    19  19 100 S5        30.36S WCI  13
COUNCIL BLFS * MOCLDY    18  16  93 W6        30.31S WCI   9
CRESTON *      CLOUDY    19  18  93 SW5       30.32S WCI  13
HARLAN  *      PTCLDY    19  18  93 W3        30.35S
LAMONI         CLOUDY    19  17  92 CALM      30.33S
RED OAK *      CLOUDY    21  19  93 SW3       30.34R
SHENANDOAH *   CLOUDY    21  18  86 CALM      30.36R
$$

IAZ047>049-059>061-072>074-084-011200-
   CENTRAL IOWA

CITY           SKY/WX    TMP DP  RH WIND       PRES   REMARKS
AMES           CLOUDY    17  14  88 S6        30.32F WCI   9
ANKENY *       CLOUDY    18  16  93 CALM      30.34R
CHARITON *     CLOUDY    18  16  93 S5        30.34R WCI  11
DES MOINES     FLURRIES  21  16  81 W3        30.33S
GRINNELL*      CLOUDY    16  14  93 CALM      30.34S
KNOXVILLE *    CLOUDY    18  14  86 S6        30.33F WCI   9
MARSHALLTOWN   CLOUDY    16  14  92 S5        30.31F WCI   9
PELLA *        CLOUDY    18  18 100 CALM      30.36S
PERRY *          N/A     21  18  86 SW7       30.33R WCI  13
$$

IAZ004>006-015-016-023>025-035-036-011200-
   NORTH CENTRAL IOWA

CITY           SKY/WX    TMP DP  RH WIND       PRES   REMARKS
ALGONA *       CLEAR      7   3  85 S9        30.27S WCI  -7
CLARION *      PTCLDY    10   9  92 S9        30.29S FOG     WCI  -2
ESTHERVILLE    PTCLDY    12  10  92 W14       30.24S WCI  -3
FORT DODGE *   PTCLDY    14  10  85 S6        30.30R WCI   5
MASON CITY     CLOUDY    10   7  87 S6        30.29S WCI   0
FOREST CITY *  MOCLDY     7   3  85 CALM      30.27S
IOWA FALLS *     N/A     10   9  92 S7        30.31S FOG     WCI   0
$$

IAZ007>011-017>019-026>030-037>042-050>054-066-011200-
   NORTHEAST IOWA

CITY           SKY/WX    TMP DP  RH WIND       PRES   REMARKS
CEDAR RAPIDS   LGT SNOW  13  11  92 SE3       30.34F
CHARLES CITY * CLOUDY    14  12  92 S7        30.30F WCI   4
CLINTON *      CLOUDY    12   9  85 CALM      30.40S
DECORAH *      MOCLDY    10   9  92 S5        30.29F WCI   2
DUBUQUE        FOG       11  10  96 SW3       30.33F VSB 1/4
MONTICELLO *   CLOUDY     5   1  85 CALM      30.36R FOG
OELWEIN *      CLOUDY    14  10  85 S7        30.32F WCI   4
WATERLOO       CLOUDY    15  13  91 CALM      30.32F
$$

IAZ064-065-067-068-078-011200-
   EAST CENTRAL IOWA

CITY           SKY/WX    TMP DP  RH WIND       PRES   REMARKS
DAVENPORT      CLOUDY    11   7  84 CALM      30.38S FOG
IOWA CITY      CLOUDY    13  11  92 SE3       30.38F FOG
MT. PLEASANT * CLOUDY    10   9  92 N3        30.37F FOG
MUSCATINE *    CLOUDY    12  10  92 CALM      30.40S FOG
QUAD CITIES    FOG        9   6  88 CALM      30.38S VSB 3/4
$$

IAZ062-063-075>077-085>089-095>099-011200-
   SOUTHEAST IOWA

CITY           SKY/WX    TMP DP  RH WIND       PRES   REMARKS
BURLINGTON     CLOUDY    20  17  88 N3        30.36S
FAIRFIELD *    CLOUDY    14   9  79 CALM      30.37S
FORT MADISON * CLOUDY    19  18  93 CALM      30.37S
KEOKUK *       FLURRIES  21  19  93 CALM      30.36S
OSKALOOSA *    CLOUDY    16  14  93 CALM      30.36R
CENTERVILLE *  CLOUDY    16  16 100 CALM      30.35F
OTTUMWA        CLOUDY    15  12  88 S3        30.36R
WASHINGTON *   CLOUDY    14  14 100 CALM      30.37S FOG
$$

ABBREVIATIONS USED IN REMARKS
   TC - TEMPERATURES IN CELSIUS
  WCI - WIND CHILL INDEX
   HX - HEAT INDEX
  VSB - VISIBILITY
$$




USA.gov is the U.S. government's official web portal to all federal, state and local government web resources and services.